When you browse on this site, cookies collect data to enhance your experience and personalize the content and advertising you see.
Visit our Privacy Policy to learn more. By continuing to use the site, you agree to this use of cookies and data.
  • In Austria
  • List of Countries
  • For 7 days
  • Water Temperature
  • Weather Map
  • News
  • Weather Widgets
  • user-avatar
    Login

    Hourly Weather Stoneham

    Today, 13 December, Friday

    Time Temperature Precipitation Wind Pressure Humidity
    00:00 -4°C° 0 mm 2 mps 774 mmHg 71%
    01:00 -3°C° 0 mm 2 mps 774 mmHg 70%
    02:00 -3°C° 0 mm 2 mps 774 mmHg 70%
    03:00 -3°C° 0 mm 2 mps 773 mmHg 70%
    04:00 -3°C° 0 mm 2 mps 773 mmHg 71%
    05:00 -2°C° 0 mm 3 mps 773 mmHg 72%
    06:00 -2°C° 0 mm 3 mps 772 mmHg 73%
    07:00 -2°C° 0 mm 3 mps 772 mmHg 74%
    08:00 0°C° 0 mm 3 mps 772 mmHg 73%
    09:00 0°C° 0 mm 4 mps 771 mmHg 72%
    10:00 +1°C° 0 mm 4 mps 771 mmHg 71%
    11:00 +3°C° 0 mm 4 mps 770 mmHg 74%
    12:00 +3°C° 0 mm 3 mps 769 mmHg 77%
    13:00 +3°C° 0 mm 3 mps 768 mmHg 80%
    14:00 +3°C° 0 mm 3 mps 768 mmHg 84%
    15:00 +3°C° 0 mm 3 mps 767 mmHg 89%
    16:00 +2°C° 0 mm 3 mps 766 mmHg 93%
    17:00 +3°C° 0.1 mm 3 mps 766 mmHg 94%
    18:00 +3°C° 0.1 mm 3 mps 766 mmHg 95%
    19:00 +3°C° 0.1 mm 3 mps 766 mmHg 96%
    20:00 +3°C° 0.1 mm 3 mps 765 mmHg 96%
    21:00 +4°C° 0.1 mm 3 mps 764 mmHg 97%
    22:00 +4°C° 0.1 mm 3 mps 763 mmHg 97%
    23:00 +5°C° 0.3 mm 3 mps 762 mmHg 97%

    Tomorrow, 14 December, Saturday

    Time Temperature Precipitation Wind Pressure Humidity
    00:00 +5°C° 0.3 mm 3 mps 761 mmHg 98%
    01:00 +5°C° 0.3 mm 3 mps 760 mmHg 98%
    02:00 +6°C° 1.8 mm 4 mps 758 mmHg 98%
    03:00 +7°C° 1.8 mm 4 mps 757 mmHg 98%
    04:00 +7°C° 1.8 mm 5 mps 755 mmHg 98%
    05:00 +7°C° 5.9 mm 5 mps 753 mmHg 98%
    06:00 +8°C° 5.9 mm 6 mps 752 mmHg 97%
    07:00 +8°C° 5.9 mm 6 mps 750 mmHg 97%
    08:00 +8°C° 4 mm 5 mps 748 mmHg 98%
    09:00 +8°C° 4 mm 4 mps 746 mmHg 98%
    10:00 +9°C° 4 mm 2 mps 744 mmHg 99%
    11:00 +9°C° 1.2 mm 2 mps 743 mmHg 99%
    12:00 +9°C° 1.2 mm 2 mps 742 mmHg 99%
    13:00 +10°C° 1.2 mm 1 mps 741 mmHg 99%
    14:00 +10°C° 0 mm 1 mps 740 mmHg 99%
    15:00 +10°C° 0 mm 1 mps 740 mmHg 99%
    16:00 +10°C° 0 mm 1 mps 739 mmHg 99%
    17:00 +10°C° 0 mm 2 mps 739 mmHg 98%
    18:00 +11°C° 0 mm 3 mps 738 mmHg 97%
    19:00 +12°C° 0 mm 4 mps 737 mmHg 96%
    20:00 +10°C° 0.1 mm 5 mps 737 mmHg 93%
    21:00 +10°C° 0.1 mm 5 mps 736 mmHg 90%
    22:00 +10°C° 0.1 mm 6 mps 736 mmHg 87%
    23:00 +10°C° 0 mm 6 mps 736 mmHg 84%

    Day after tomorrow, 15 December, Sunday

    Time Temperature Precipitation Wind Pressure Humidity
    00:00 +9°C° 0 mm 6 mps 737 mmHg 82%
    01:00 +8°C° 0 mm 7 mps 737 mmHg 79%
    02:00 +6°C° 0 mm 7 mps 738 mmHg 77%
    03:00 +6°C° 0 mm 7 mps 739 mmHg 75%
    04:00 +5°C° 0 mm 8 mps 739 mmHg 73%
    05:00 +5°C° 0 mm 8 mps 740 mmHg 72%
    06:00 +4°C° 0 mm 8 mps 741 mmHg 71%
    07:00 +2°C° 0 mm 8 mps 742 mmHg 70%
    08:00 +4°C° 0 mm 8 mps 743 mmHg 67%
    09:00 +3°C° 0 mm 9 mps 744 mmHg 65%
    10:00 +3°C° 0 mm 9 mps 745 mmHg 62%
    11:00 +4°C° 0 mm 8 mps 745 mmHg 61%
    12:00 +4°C° 0 mm 8 mps 746 mmHg 60%
    13:00 +5°C° 0 mm 8 mps 746 mmHg 59%
    14:00 +4°C° 0 mm 8 mps 747 mmHg 59%
    15:00 +4°C° 0 mm 7 mps 748 mmHg 59%
    16:00 +3°C° 0 mm 7 mps 749 mmHg 59%
    17:00 +2°C° 0 mm 7 mps 750 mmHg 59%
    18:00 0°C° 0 mm 8 mps 751 mmHg 59%
    19:00 -1°C° 0 mm 8 mps 752 mmHg 59%
    20:00 -2°C° 0 mm 8 mps 752 mmHg 58%
    21:00 -2°C° 0 mm 8 mps 753 mmHg 57%
    22:00 -4°C° 0 mm 8 mps 754 mmHg 55%
    23:00 -3°C° 0 mm 7 mps 755 mmHg 54%

    16 December, Monday

    Time Temperature Precipitation Wind Pressure Humidity
    00:00 -4°C° 0 mm 7 mps 755 mmHg 53%
    01:00 -4°C° 0 mm 7 mps 756 mmHg 51%
    02:00 -6°C° 0 mm 7 mps 757 mmHg 49%
    03:00 -5°C° 0 mm 6 mps 758 mmHg 47%
    04:00 -5°C° 0 mm 6 mps 759 mmHg 44%
    05:00 -5°C° 0 mm 6 mps 760 mmHg 43%
    06:00 -6°C° 0 mm 5 mps 760 mmHg 41%
    07:00 -6°C° 0 mm 5 mps 761 mmHg 40%
    08:00 -5°C° 0 mm 5 mps 762 mmHg 37%
    09:00 -4°C° 0 mm 5 mps 762 mmHg 34%
    10:00 -4°C° 0 mm 5 mps 762 mmHg 31%
    11:00 -2°C° 0 mm 4 mps 762 mmHg 30%
    12:00 -2°C° 0 mm 4 mps 762 mmHg 29%
    13:00 -1°C° 0 mm 4 mps 762 mmHg 28%
    14:00 -1°C° 0 mm 4 mps 762 mmHg 30%
    15:00 -1°C° 0 mm 3 mps 762 mmHg 32%
    16:00 -1°C° 0 mm 2 mps 763 mmHg 35%
    17:00 -1°C° 0 mm 2 mps 763 mmHg 37%
    18:00 -2°C° 0 mm 2 mps 763 mmHg 39%
    19:00 0°C° 0 mm 1 mps 763 mmHg 41%
    20:00 0°C° 0 mm 1 mps 763 mmHg 41%
    21:00 0°C° 0 mm 1 mps 762 mmHg 41%
    22:00 -1°C° 0 mm 0 mps 762 mmHg 41%
    23:00 0°C° 0.1 mm 1 mps 761 mmHg 41%

    17 December, Tuesday

    Time Temperature Precipitation Wind Pressure Humidity
    00:00 0°C° 0.1 mm 1 mps 761 mmHg 41%
    01:00 +1°C° 0.1 mm 1 mps 760 mmHg 41%
    02:00 -2°C° 0.5 mm 2 mps 759 mmHg 55%
    03:00 -2°C° 0.5 mm 2 mps 758 mmHg 70%
    04:00 -2°C° 0.5 mm 2 mps 756 mmHg 85%
    05:00 -1°C° 0.8 mm 3 mps 755 mmHg 89%
    06:00 -1°C° 0.8 mm 3 mps 754 mmHg 93%
    07:00 0°C° 0.8 mm 3 mps 752 mmHg 97%
    08:00 +1°C° 0.4 mm 2 mps 751 mmHg 97%
    09:00 +2°C° 0.4 mm 2 mps 750 mmHg 98%
    10:00 +3°C° 0.4 mm 1 mps 749 mmHg 98%
    11:00 +3°C° 0.4 mm 1 mps 748 mmHg 97%
    12:00 +3°C° 0.4 mm 1 mps 746 mmHg 97%
    13:00 +2°C° 0.4 mm 2 mps 745 mmHg 96%
    14:00 +2°C° 0.1 mm 2 mps 745 mmHg 96%
    15:00 +2°C° 0.1 mm 2 mps 745 mmHg 95%
    16:00 +1°C° 0.1 mm 3 mps 745 mmHg 94%
    17:00 +1°C° 0 mm 3 mps 746 mmHg 89%
    18:00 0°C° 0 mm 4 mps 746 mmHg 84%
    19:00 0°C° 0 mm 4 mps 747 mmHg 78%
    20:00 -1°C° 0 mm 5 mps 747 mmHg 75%
    21:00 -2°C° 0 mm 5 mps 748 mmHg 73%
    22:00 -4°C° 0 mm 6 mps 749 mmHg 70%
    23:00 -4°C° 0 mm 6 mps 749 mmHg 70%

    18 December, Wednesday

    Time Temperature Precipitation Wind Pressure Humidity
    00:00 -5°C° 0 mm 5 mps 749 mmHg 71%
    01:00 -5°C° 0 mm 5 mps 749 mmHg 71%
    02:00 -5°C° 0 mm 5 mps 750 mmHg 72%
    03:00 -5°C° 0 mm 5 mps 750 mmHg 72%
    04:00 -5°C° 0 mm 5 mps 750 mmHg 72%
    05:00 -5°C° 0 mm 6 mps 751 mmHg 70%
    06:00 -5°C° 0 mm 6 mps 751 mmHg 68%
    07:00 -5°C° 0 mm 6 mps 752 mmHg 66%
    08:00 -6°C° 0 mm 6 mps 753 mmHg 61%
    09:00 -6°C° 0 mm 6 mps 753 mmHg 56%
    10:00 -7°C° 0 mm 7 mps 754 mmHg 51%
    11:00 -7°C° 0 mm 7 mps 754 mmHg 50%
    12:00 -7°C° 0 mm 7 mps 753 mmHg 48%
    13:00 -7°C° 0 mm 7 mps 753 mmHg 47%
    14:00 -8°C° 0 mm 7 mps 753 mmHg 47%
    15:00 -8°C° 0 mm 7 mps 754 mmHg 48%
    16:00 -9°C° 0 mm 7 mps 754 mmHg 48%
    17:00 -9°C° 0 mm 7 mps 755 mmHg 48%
    18:00 -11°C° 0 mm 7 mps 755 mmHg 49%
    19:00 -12°C° 0 mm 7 mps 756 mmHg 49%
    20:00 -12°C° 0 mm 7 mps 756 mmHg 50%
    21:00 -12°C° 0 mm 7 mps 756 mmHg 52%
    22:00 -12°C° 0 mm 6 mps 756 mmHg 53%
    23:00 -13°C° 0 mm 7 mps 756 mmHg 49%
    Show more